Year,Month,Day,Hour,Minute,Value (Times are PST for temperature in C)
2018,07,25,00,00,26.50
2018,07,25,00,01,26.50
2018,07,25,00,02,26.50
2018,07,25,00,03,26.60
2018,07,25,00,04,26.60
2018,07,25,00,05,26.60
2018,07,25,00,06,26.60
2018,07,25,00,07,26.60
2018,07,25,00,08,26.60
2018,07,25,00,09,26.60
2018,07,25,00,10,26.60
2018,07,25,00,11,26.60
2018,07,25,00,12,26.50
2018,07,25,00,13,26.50
2018,07,25,00,14,26.60
2018,07,25,00,15,26.60
2018,07,25,00,16,26.60
2018,07,25,00,17,26.60
2018,07,25,00,18,26.60
2018,07,25,00,19,26.60
2018,07,25,00,20,26.60
2018,07,25,00,21,26.60
2018,07,25,00,22,26.50
2018,07,25,00,23,26.50
2018,07,25,00,24,26.50
2018,07,25,00,25,26.50
2018,07,25,00,26,26.50
2018,07,25,00,27,26.40
2018,07,25,00,28,26.40
2018,07,25,00,29,26.40
2018,07,25,00,30,26.30
2018,07,25,00,31,26.30
2018,07,25,00,32,26.30
2018,07,25,00,33,26.30
2018,07,25,00,34,26.30
2018,07,25,00,35,26.30
2018,07,25,00,36,26.30
2018,07,25,00,37,26.30
2018,07,25,00,38,26.30
2018,07,25,00,39,26.30
2018,07,25,00,40,26.30
2018,07,25,00,41,26.20
2018,07,25,00,42,26.20
2018,07,25,00,43,26.20
2018,07,25,00,44,26.20
2018,07,25,00,45,26.10
2018,07,25,00,46,26.10
2018,07,25,00,47,26.10
2018,07,25,00,48,26.10
2018,07,25,00,49,26.00
2018,07,25,00,50,26.00
2018,07,25,00,51,26.00
2018,07,25,00,52,26.00
2018,07,25,00,53,26.00
2018,07,25,00,54,26.00
2018,07,25,00,55,26.00
2018,07,25,00,56,26.00
2018,07,25,00,57,26.00
2018,07,25,00,58,26.00
2018,07,25,00,59,25.90
2018,07,25,01,00,26.00
2018,07,25,01,01,26.00
2018,07,25,01,02,26.10
2018,07,25,01,03,26.10
2018,07,25,01,04,26.10
2018,07,25,01,05,26.10
2018,07,25,01,06,26.10
2018,07,25,01,07,26.10
2018,07,25,01,08,26.00
2018,07,25,01,09,26.00
2018,07,25,01,10,26.00
2018,07,25,01,11,26.00
2018,07,25,01,12,25.90
2018,07,25,01,13,25.90
2018,07,25,01,14,25.90
2018,07,25,01,15,25.90
2018,07,25,01,16,25.90
2018,07,25,01,17,25.90
2018,07,25,01,18,25.90
2018,07,25,01,19,25.90
2018,07,25,01,20,25.90
2018,07,25,01,21,25.90
2018,07,25,01,22,25.90
2018,07,25,01,23,25.90
2018,07,25,01,24,25.90
2018,07,25,01,25,25.90
2018,07,25,01,26,25.90
2018,07,25,01,27,25.90
2018,07,25,01,28,25.90
2018,07,25,01,29,25.90
2018,07,25,01,30,25.90
2018,07,25,01,31,25.90
2018,07,25,01,32,25.90
2018,07,25,01,33,25.90
2018,07,25,01,34,25.90
2018,07,25,01,35,25.90
2018,07,25,01,36,25.90
2018,07,25,01,37,25.90
2018,07,25,01,38,25.90
2018,07,25,01,39,25.90
2018,07,25,01,40,25.90
2018,07,25,01,41,26.00
2018,07,25,01,42,26.00
2018,07,25,01,43,26.00
2018,07,25,01,44,25.90
2018,07,25,01,45,25.90
2018,07,25,01,46,25.90
2018,07,25,01,47,25.90
2018,07,25,01,48,25.90
2018,07,25,01,49,25.90
2018,07,25,01,50,25.90
2018,07,25,01,51,25.90
2018,07,25,01,52,25.80
2018,07,25,01,53,25.80
2018,07,25,01,54,25.80
2018,07,25,01,55,25.80
2018,07,25,01,56,25.80
2018,07,25,01,57,25.80
2018,07,25,01,58,25.80
2018,07,25,01,59,25.80
2018,07,25,02,00,25.80
2018,07,25,02,01,25.80
2018,07,25,02,02,25.70
2018,07,25,02,03,25.70
2018,07,25,02,04,25.70
2018,07,25,02,05,25.70
2018,07,25,02,06,25.70
2018,07,25,02,07,25.60
2018,07,25,02,08,25.60
2018,07,25,02,09,25.60
2018,07,25,02,10,25.60
2018,07,25,02,11,25.60
2018,07,25,02,12,25.50
2018,07,25,02,13,25.50
2018,07,25,02,14,25.50
2018,07,25,02,15,25.40
2018,07,25,02,16,25.40
2018,07,25,02,17,25.40
2018,07,25,02,18,25.40
2018,07,25,02,19,25.40
2018,07,25,02,20,25.40
2018,07,25,02,21,25.40
2018,07,25,02,22,25.40
2018,07,25,02,23,25.30
2018,07,25,02,24,25.30
2018,07,25,02,25,25.30
2018,07,25,02,26,25.30
2018,07,25,02,27,25.30
2018,07,25,02,28,25.30
2018,07,25,02,29,25.30
2018,07,25,02,30,25.30
2018,07,25,02,31,25.30
2018,07,25,02,32,25.30
2018,07,25,02,33,25.30
2018,07,25,02,34,25.30
2018,07,25,02,35,25.30
2018,07,25,02,36,25.30
2018,07,25,02,37,25.30
2018,07,25,02,38,25.30
2018,07,25,02,39,25.30
2018,07,25,02,40,25.30
2018,07,25,02,41,25.30
2018,07,25,02,42,25.20
2018,07,25,02,43,25.20
2018,07,25,02,44,25.20
2018,07,25,02,45,25.20
2018,07,25,02,46,25.20
2018,07,25,02,47,25.20
2018,07,25,02,48,25.10
2018,07,25,02,49,25.10
2018,07,25,02,50,25.10
2018,07,25,02,51,25.10
2018,07,25,02,52,25.10
2018,07,25,02,53,25.00
2018,07,25,02,54,25.00
2018,07,25,02,55,25.00
2018,07,25,02,56,24.90
2018,07,25,02,57,24.90
2018,07,25,02,58,24.90
2018,07,25,02,59,24.80
2018,07,25,03,00,24.80
2018,07,25,03,01,24.80
2018,07,25,03,02,24.80
2018,07,25,03,03,24.70
2018,07,25,03,04,24.70
2018,07,25,03,05,24.70
2018,07,25,03,06,24.70
2018,07,25,03,07,24.70
2018,07,25,03,08,24.70
2018,07,25,03,09,24.60
2018,07,25,03,10,24.60
2018,07,25,03,11,24.60
2018,07,25,03,12,24.60
2018,07,25,03,13,24.60
2018,07,25,03,14,24.60
2018,07,25,03,15,24.60
2018,07,25,03,16,24.60
2018,07,25,03,17,24.60
2018,07,25,03,18,24.60
2018,07,25,03,19,24.60
2018,07,25,03,20,24.60
2018,07,25,03,21,24.50
2018,07,25,03,22,24.50
2018,07,25,03,23,24.50
2018,07,25,03,24,24.50
2018,07,25,03,25,24.40
2018,07,25,03,26,24.40
2018,07,25,03,27,24.40
2018,07,25,03,28,24.40
2018,07,25,03,29,24.40
2018,07,25,03,30,24.40
2018,07,25,03,31,24.40
2018,07,25,03,32,24.30
2018,07,25,03,33,24.30
2018,07,25,03,34,24.30
2018,07,25,03,35,24.30
2018,07,25,03,36,24.30
2018,07,25,03,37,24.30
2018,07,25,03,38,24.30
2018,07,25,03,39,24.30
2018,07,25,03,40,24.30
2018,07,25,03,41,24.20
2018,07,25,03,42,24.20
2018,07,25,03,43,24.20
2018,07,25,03,44,24.20
2018,07,25,03,45,24.20
2018,07,25,03,46,24.20
2018,07,25,03,47,24.20
2018,07,25,03,48,24.20
2018,07,25,03,49,24.20
2018,07,25,03,50,24.20
2018,07,25,03,51,24.20
2018,07,25,03,52,24.20
2018,07,25,03,53,24.20
2018,07,25,03,54,24.20
2018,07,25,03,55,24.20
2018,07,25,03,56,24.20
2018,07,25,03,57,24.20
2018,07,25,03,58,24.20
2018,07,25,03,59,24.20
2018,07,25,04,00,24.20
2018,07,25,04,01,24.20
2018,07,25,04,02,24.20
2018,07,25,04,03,24.20
2018,07,25,04,04,24.20
2018,07,25,04,05,24.20
2018,07,25,04,06,24.10
2018,07,25,04,07,24.10
2018,07,25,04,08,24.10
2018,07,25,04,09,24.10
2018,07,25,04,10,24.10
2018,07,25,04,11,24.10
2018,07,25,04,12,24.00
2018,07,25,04,13,24.00
2018,07,25,04,14,24.00
2018,07,25,04,15,24.00
2018,07,25,04,16,23.90
2018,07,25,04,17,23.90
2018,07,25,04,18,23.90
2018,07,25,04,19,23.90
2018,07,25,04,20,23.90
2018,07,25,04,21,23.90
2018,07,25,04,22,23.80
2018,07,25,04,23,23.80
2018,07,25,04,24,23.80
2018,07,25,04,25,23.80
2018,07,25,04,26,23.80
2018,07,25,04,27,23.80
2018,07,25,04,28,23.80
2018,07,25,04,29,23.70
2018,07,25,04,30,23.70
2018,07,25,04,31,23.70
2018,07,25,04,32,23.70
2018,07,25,04,33,23.70
2018,07,25,04,34,23.70
2018,07,25,04,35,23.70
2018,07,25,04,36,23.70
2018,07,25,04,37,23.70
2018,07,25,04,38,23.70
2018,07,25,04,39,23.70
2018,07,25,04,40,23.70
2018,07,25,04,41,23.70
2018,07,25,04,42,23.70
2018,07,25,04,43,23.70
2018,07,25,04,44,23.70
2018,07,25,04,45,23.70
2018,07,25,04,46,23.70
2018,07,25,04,47,23.70
2018,07,25,04,48,23.70
2018,07,25,04,49,23.70
2018,07,25,04,50,23.70
2018,07,25,04,51,23.70
2018,07,25,04,52,23.70
2018,07,25,04,53,23.70
2018,07,25,04,54,23.60
2018,07,25,04,55,23.60
2018,07,25,04,56,23.60
2018,07,25,04,57,23.60
2018,07,25,04,58,23.60
2018,07,25,04,59,23.60
2018,07,25,05,00,23.60
2018,07,25,05,01,23.60
2018,07,25,05,02,23.60
2018,07,25,05,03,23.60
2018,07,25,05,04,23.60
2018,07,25,05,05,23.60
2018,07,25,05,06,23.60
2018,07,25,05,07,23.60
2018,07,25,05,08,23.60
2018,07,25,05,09,23.60
2018,07,25,05,10,23.60
2018,07,25,05,11,23.60
2018,07,25,05,12,23.50
2018,07,25,05,13,23.50
2018,07,25,05,14,23.50
2018,07,25,05,15,23.50
2018,07,25,05,16,23.50
2018,07,25,05,17,23.50
2018,07,25,05,18,23.40
2018,07,25,05,19,23.40
2018,07,25,05,20,23.40
2018,07,25,05,21,23.40
2018,07,25,05,22,23.40
2018,07,25,05,23,23.30
2018,07,25,05,24,23.30
2018,07,25,05,25,23.30
2018,07,25,05,26,23.30
2018,07,25,05,27,23.20
2018,07,25,05,28,23.20
2018,07,25,05,29,23.20
2018,07,25,05,30,23.20
2018,07,25,05,31,23.10
2018,07,25,05,32,23.10
2018,07,25,05,33,23.10
2018,07,25,05,34,23.10
2018,07,25,05,35,23.00
2018,07,25,05,36,23.00
2018,07,25,05,37,22.90
2018,07,25,05,38,22.90
2018,07,25,05,39,22.90
2018,07,25,05,40,22.90
2018,07,25,05,41,22.90
2018,07,25,05,42,22.90
2018,07,25,05,43,22.90
2018,07,25,05,44,22.90
2018,07,25,05,45,22.90
2018,07,25,05,46,22.90
2018,07,25,05,47,22.90
2018,07,25,05,48,22.90
2018,07,25,05,49,22.80
2018,07,25,05,50,22.80
2018,07,25,05,51,22.80
2018,07,25,05,52,22.80
2018,07,25,05,53,22.80
2018,07,25,05,54,22.80
2018,07,25,05,55,22.80
2018,07,25,05,56,22.80
2018,07,25,05,57,22.80
2018,07,25,05,58,22.80
2018,07,25,05,59,22.80
2018,07,25,06,00,22.80
2018,07,25,06,01,22.80
2018,07,25,06,02,22.80
2018,07,25,06,03,22.80
2018,07,25,06,04,22.80
2018,07,25,06,05,22.80
2018,07,25,06,06,22.80
2018,07,25,06,07,22.70
2018,07,25,06,08,22.70
2018,07,25,06,09,22.70
2018,07,25,06,10,22.70
2018,07,25,06,11,22.70
2018,07,25,06,12,22.70
2018,07,25,06,13,22.70
2018,07,25,06,14,22.70
2018,07,25,06,15,22.70
2018,07,25,06,16,22.70
2018,07,25,06,17,22.70
2018,07,25,06,18,22.70
2018,07,25,06,19,22.70
2018,07,25,06,20,22.70
2018,07,25,06,21,22.70
2018,07,25,06,22,22.70
2018,07,25,06,23,22.70
2018,07,25,06,24,22.70
2018,07,25,06,25,22.70
2018,07,25,06,26,22.70
2018,07,25,06,27,22.70
2018,07,25,06,28,22.70
2018,07,25,06,29,22.70
2018,07,25,06,30,22.70
2018,07,25,06,31,22.70
2018,07,25,06,32,22.70
2018,07,25,06,33,22.70
2018,07,25,06,34,22.70
2018,07,25,06,35,22.70
2018,07,25,06,36,22.70
2018,07,25,06,37,22.70
2018,07,25,06,38,22.70
2018,07,25,06,39,22.70
2018,07,25,06,40,22.70
2018,07,25,06,41,22.70
2018,07,25,06,42,22.70
2018,07,25,06,43,22.70
2018,07,25,06,44,22.70
2018,07,25,06,45,22.70
2018,07,25,06,46,22.80
2018,07,25,06,47,22.80
2018,07,25,06,48,22.80
2018,07,25,06,49,22.80
2018,07,25,06,50,22.80
2018,07,25,06,51,22.80
2018,07,25,06,52,22.80
2018,07,25,06,53,22.80
2018,07,25,06,54,22.80
2018,07,25,06,55,22.90
2018,07,25,06,56,22.90
2018,07,25,06,57,22.90
2018,07,25,06,58,22.90
2018,07,25,06,59,22.90
2018,07,25,07,00,23.00
2018,07,25,07,01,23.00
2018,07,25,07,02,23.00
2018,07,25,07,03,23.00
2018,07,25,07,04,23.00
2018,07,25,07,05,23.00
2018,07,25,07,06,23.00
2018,07,25,07,07,23.00
2018,07,25,07,08,23.00
2018,07,25,07,09,22.90
2018,07,25,07,10,22.90
2018,07,25,07,11,22.90
2018,07,25,07,12,22.90
2018,07,25,07,13,22.90
2018,07,25,07,14,22.80
2018,07,25,07,15,22.80
2018,07,25,07,16,22.80
2018,07,25,07,17,22.80
2018,07,25,07,18,22.80
2018,07,25,07,19,22.80
2018,07,25,07,20,22.80
2018,07,25,07,21,22.80
2018,07,25,07,22,22.80
2018,07,25,07,23,22.80
2018,07,25,07,24,22.80
2018,07,25,07,25,22.80
2018,07,25,07,26,22.90
2018,07,25,07,27,22.90
2018,07,25,07,28,22.90
2018,07,25,07,29,22.90
2018,07,25,07,30,22.90
2018,07,25,07,31,23.00
2018,07,25,07,32,23.00
2018,07,25,07,33,23.00
2018,07,25,07,34,23.10
2018,07,25,07,35,23.10
2018,07,25,07,36,23.10
2018,07,25,07,37,23.10
2018,07,25,07,38,23.10
2018,07,25,07,39,23.10
2018,07,25,07,40,23.10
2018,07,25,07,41,23.10
2018,07,25,07,42,23.10
2018,07,25,07,43,23.10
2018,07,25,07,44,23.10
2018,07,25,07,45,23.10
2018,07,25,07,46,23.10
2018,07,25,07,47,23.10
2018,07,25,07,48,23.10
2018,07,25,07,49,23.10
2018,07,25,07,50,23.20
2018,07,25,07,51,23.20
2018,07,25,07,52,23.20
2018,07,25,07,53,23.20
2018,07,25,07,54,23.30
2018,07,25,07,55,23.30
2018,07,25,07,56,23.40
2018,07,25,07,57,23.40
2018,07,25,07,58,23.50
2018,07,25,07,59,23.60
2018,07,25,08,00,23.60
2018,07,25,08,01,23.70
2018,07,25,08,02,23.80
2018,07,25,08,03,23.80
2018,07,25,08,04,23.80
2018,07,25,08,05,23.90
2018,07,25,08,06,24.00
2018,07,25,08,07,24.00
2018,07,25,08,08,24.00
2018,07,25,08,09,24.10
2018,07,25,08,10,24.10
2018,07,25,08,11,24.20
2018,07,25,08,12,24.20
2018,07,25,08,13,24.20
2018,07,25,08,14,24.20
2018,07,25,08,15,24.30
2018,07,25,08,16,24.30
2018,07,25,08,17,24.30
2018,07,25,08,18,24.30
2018,07,25,08,19,24.30
2018,07,25,08,20,24.30
2018,07,25,08,21,24.20
2018,07,25,08,22,24.20
2018,07,25,08,23,24.30
2018,07,25,08,24,24.30
2018,07,25,08,25,24.30
2018,07,25,08,26,24.30
2018,07,25,08,27,24.30
2018,07,25,08,28,24.30
2018,07,25,08,29,24.30
2018,07,25,08,30,24.30
2018,07,25,08,31,24.30
2018,07,25,08,32,24.30
2018,07,25,08,33,24.30
2018,07,25,08,34,24.30
2018,07,25,08,35,24.30
2018,07,25,08,36,24.30
2018,07,25,08,37,24.30
2018,07,25,08,38,24.30
2018,07,25,08,39,24.30
2018,07,25,08,40,24.30
2018,07,25,08,41,24.30
2018,07,25,08,42,24.40
2018,07,25,08,43,24.40
2018,07,25,08,44,24.40
2018,07,25,08,45,24.40
2018,07,25,08,46,24.40
2018,07,25,08,47,24.40
2018,07,25,08,48,24.40
2018,07,25,08,49,24.50
2018,07,25,08,50,24.50
2018,07,25,08,51,24.50
2018,07,25,08,52,24.50
2018,07,25,08,53,24.50
2018,07,25,08,54,24.50
2018,07,25,08,55,24.50
2018,07,25,08,56,24.50
2018,07,25,08,57,24.60
2018,07,25,08,58,24.60
2018,07,25,08,59,24.60
2018,07,25,09,00,24.60
2018,07,25,09,01,24.60
2018,07,25,09,02,24.60
2018,07,25,09,03,24.70
2018,07,25,09,04,24.70
2018,07,25,09,05,24.70
2018,07,25,09,06,24.80
2018,07,25,09,07,24.80
2018,07,25,09,08,24.90
2018,07,25,09,09,24.90
2018,07,25,09,10,24.80
2018,07,25,09,11,24.80
2018,07,25,09,12,24.80
2018,07,25,09,13,24.80
2018,07,25,09,14,24.80
2018,07,25,09,15,24.80
2018,07,25,09,16,24.80
2018,07,25,09,17,24.80
2018,07,25,09,18,24.80
2018,07,25,09,19,24.80
2018,07,25,09,20,24.80
2018,07,25,09,21,24.80
2018,07,25,09,22,24.80
2018,07,25,09,23,24.80
2018,07,25,09,24,24.80
2018,07,25,09,25,24.80
2018,07,25,09,26,24.80
2018,07,25,09,27,24.90
2018,07,25,09,28,24.80
2018,07,25,09,29,24.80
2018,07,25,09,30,24.80
2018,07,25,09,31,24.80
2018,07,25,09,32,24.80
2018,07,25,09,33,24.70
2018,07,25,09,34,24.70
2018,07,25,09,35,24.70
2018,07,25,09,36,24.70
2018,07,25,09,37,24.70
2018,07,25,09,38,24.70
2018,07,25,09,39,24.70
2018,07,25,09,40,24.70
2018,07,25,09,41,24.70
2018,07,25,09,42,24.70
2018,07,25,09,43,24.80
2018,07,25,09,44,24.80
2018,07,25,09,45,24.80
2018,07,25,09,46,24.80
2018,07,25,09,47,24.80
2018,07,25,09,48,24.80
2018,07,25,09,49,24.80
2018,07,25,09,50,24.80
2018,07,25,09,51,24.90
2018,07,25,09,52,24.90
2018,07,25,09,53,24.90
2018,07,25,09,54,24.90
2018,07,25,09,55,25.00
2018,07,25,09,56,25.00
2018,07,25,09,57,25.10
2018,07,25,09,58,25.10
2018,07,25,09,59,25.20
2018,07,25,10,00,25.20
2018,07,25,10,01,25.30
2018,07,25,10,02,25.30
2018,07,25,10,03,25.40
2018,07,25,10,04,25.40
2018,07,25,10,05,25.40
2018,07,25,10,06,25.40
2018,07,25,10,07,25.40
2018,07,25,10,08,25.40
2018,07,25,10,09,25.40
2018,07,25,10,10,25.40
2018,07,25,10,11,25.40
2018,07,25,10,12,25.40
2018,07,25,10,13,25.40
2018,07,25,10,14,25.40
2018,07,25,10,15,25.40
2018,07,25,10,16,25.30
2018,07,25,10,17,25.30
2018,07,25,10,18,25.30
2018,07,25,10,19,25.30
2018,07,25,10,20,25.40
2018,07,25,10,21,25.40
2018,07,25,10,22,25.40
2018,07,25,10,23,25.40
2018,07,25,10,24,25.40
2018,07,25,10,25,25.30
2018,07,25,10,26,25.30
2018,07,25,10,27,25.30
2018,07,25,10,28,25.30
2018,07,25,10,29,25.30
2018,07,25,10,30,25.30
2018,07,25,10,31,25.40
2018,07,25,10,32,25.50
2018,07,25,10,33,25.60
2018,07,25,10,34,25.60
2018,07,25,10,35,25.70
2018,07,25,10,36,25.70
2018,07,25,10,37,25.70
2018,07,25,10,38,25.70
2018,07,25,10,39,25.70
2018,07,25,10,40,25.70
2018,07,25,10,41,25.60
2018,07,25,10,42,25.60
2018,07,25,10,43,25.50
2018,07,25,10,44,25.50
2018,07,25,10,45,25.40
2018,07,25,10,46,25.30
2018,07,25,10,47,25.30
2018,07,25,10,48,25.30
2018,07,25,10,49,25.20
2018,07,25,10,50,25.20
2018,07,25,10,51,25.10
2018,07,25,10,52,25.00
2018,07,25,10,53,25.00
2018,07,25,10,54,25.00
2018,07,25,10,55,25.10
2018,07,25,10,56,25.10
2018,07,25,10,57,25.10
2018,07,25,10,58,25.10
2018,07,25,10,59,25.10
2018,07,25,11,00,25.10
2018,07,25,11,01,25.10
2018,07,25,11,02,25.10
2018,07,25,11,03,25.10
2018,07,25,11,04,25.10
2018,07,25,11,05,25.10
2018,07,25,11,06,25.10
2018,07,25,11,07,25.20
2018,07,25,11,08,25.30
2018,07,25,11,09,25.30
2018,07,25,11,10,25.30
2018,07,25,11,11,25.30
2018,07,25,11,12,25.30
2018,07,25,11,13,25.40
2018,07,25,11,14,25.40
2018,07,25,11,15,25.40
2018,07,25,11,16,25.40
2018,07,25,11,17,25.40
2018,07,25,11,18,25.50
2018,07,25,11,19,25.50
2018,07,25,11,20,25.60
2018,07,25,11,21,25.60
2018,07,25,11,22,25.60
2018,07,25,11,23,25.70
2018,07,25,11,24,25.70
2018,07,25,11,25,25.70
2018,07,25,11,26,25.80
2018,07,25,11,27,25.80
2018,07,25,11,28,25.90
2018,07,25,11,29,26.00
2018,07,25,11,30,26.00
2018,07,25,11,31,26.10
2018,07,25,11,32,26.20
2018,07,25,11,33,26.10
2018,07,25,11,34,26.10
2018,07,25,11,35,26.20
2018,07,25,11,36,26.20
2018,07,25,11,37,26.20
2018,07,25,11,38,26.20
2018,07,25,11,39,26.30
2018,07,25,11,40,26.30
2018,07,25,11,41,26.30
2018,07,25,11,42,26.20
2018,07,25,11,43,26.00
2018,07,25,11,44,25.90
2018,07,25,11,45,25.80
2018,07,25,11,46,25.70
2018,07,25,11,47,25.70
2018,07,25,11,48,25.70
2018,07,25,11,49,25.70
2018,07,25,11,50,25.70
2018,07,25,11,51,25.70
2018,07,25,11,52,25.60
2018,07,25,11,53,25.60
2018,07,25,11,54,25.70
2018,07,25,11,55,25.70
2018,07,25,11,56,25.70
2018,07,25,11,57,25.70
2018,07,25,11,58,25.70
2018,07,25,11,59,25.60
2018,07,25,12,00,25.60
2018,07,25,12,01,25.60
2018,07,25,12,02,25.60
2018,07,25,12,03,25.60
2018,07,25,12,04,25.70
2018,07,25,12,05,25.70
2018,07,25,12,06,25.80
2018,07,25,12,07,25.90
2018,07,25,12,08,26.00
2018,07,25,12,09,26.00
2018,07,25,12,10,25.90
2018,07,25,12,11,25.80
2018,07,25,12,12,25.70
2018,07,25,12,13,25.70
2018,07,25,12,14,25.70
2018,07,25,12,15,25.70
2018,07,25,12,16,25.80
2018,07,25,12,17,25.80
2018,07,25,12,18,25.90
2018,07,25,12,19,25.90
2018,07,25,12,20,26.00
2018,07,25,12,21,26.10
2018,07,25,12,22,26.10
2018,07,25,12,23,26.20
2018,07,25,12,24,26.30
2018,07,25,12,25,26.40
2018,07,25,12,26,26.40
2018,07,25,12,27,26.50
2018,07,25,12,28,26.50
2018,07,25,12,29,26.50
2018,07,25,12,30,26.60
2018,07,25,12,31,26.70
2018,07,25,12,32,26.70
2018,07,25,12,33,26.80
2018,07,25,12,34,26.90
2018,07,25,12,35,26.90
2018,07,25,12,36,26.90
2018,07,25,12,37,26.80
2018,07,25,12,38,26.80
2018,07,25,12,39,26.80
2018,07,25,12,40,26.80
2018,07,25,12,41,26.80
2018,07,25,12,42,26.80
2018,07,25,12,43,26.80
2018,07,25,12,44,26.70
2018,07,25,12,45,26.70
2018,07,25,12,46,26.70
2018,07,25,12,47,26.70
2018,07,25,12,48,26.70
2018,07,25,12,49,26.60
2018,07,25,12,50,26.70
2018,07,25,12,51,26.60
2018,07,25,12,52,26.60
2018,07,25,12,53,26.60
2018,07,25,12,54,26.60
2018,07,25,12,55,26.70
2018,07,25,12,56,26.80
2018,07,25,12,57,26.80
2018,07,25,12,58,26.80
2018,07,25,12,59,26.90
2018,07,25,13,00,26.90
2018,07,25,13,01,27.00
2018,07,25,13,02,27.00
2018,07,25,13,03,27.10
2018,07,25,13,04,27.10
2018,07,25,13,05,27.10
2018,07,25,13,06,27.10
2018,07,25,13,07,27.10
2018,07,25,13,08,27.20
2018,07,25,13,09,27.20
2018,07,25,13,10,27.20
2018,07,25,13,11,27.20
2018,07,25,13,12,27.20
2018,07,25,13,13,27.20
2018,07,25,13,14,27.20
2018,07,25,13,15,27.20
2018,07,25,13,16,27.20
2018,07,25,13,17,27.20
2018,07,25,13,18,27.30
2018,07,25,13,19,27.30
2018,07,25,13,20,27.30
2018,07,25,13,21,27.30
2018,07,25,13,22,27.30
2018,07,25,13,23,27.30
2018,07,25,13,24,27.40
2018,07,25,13,25,27.40
2018,07,25,13,26,27.30
2018,07,25,13,27,27.30
2018,07,25,13,28,27.30
2018,07,25,13,29,27.30
2018,07,25,13,30,27.30
2018,07,25,13,31,27.30
2018,07,25,13,32,27.40
2018,07,25,13,33,27.40
2018,07,25,13,34,27.40
2018,07,25,13,35,27.40
2018,07,25,13,36,27.40
2018,07,25,13,37,27.50
2018,07,25,13,38,27.60
2018,07,25,13,39,27.60
2018,07,25,13,40,27.70
2018,07,25,13,41,27.70
2018,07,25,13,42,27.80
2018,07,25,13,43,27.90
2018,07,25,13,44,27.90
2018,07,25,13,45,27.90
2018,07,25,13,46,27.90
2018,07,25,13,47,28.00
2018,07,25,13,48,28.00
2018,07,25,13,49,27.90
2018,07,25,13,50,28.00
2018,07,25,13,51,27.90
2018,07,25,13,52,28.00
2018,07,25,13,53,28.00
2018,07,25,13,54,28.10
2018,07,25,13,55,28.10
2018,07,25,13,56,28.20
2018,07,25,13,57,28.20
2018,07,25,13,58,28.20
2018,07,25,13,59,28.20
2018,07,25,14,00,28.10
2018,07,25,14,01,28.10
2018,07,25,14,02,28.10
2018,07,25,14,03,28.10
2018,07,25,14,04,28.10
2018,07,25,14,05,28.20
2018,07,25,14,06,28.20
2018,07,25,14,07,28.10
2018,07,25,14,08,28.20
2018,07,25,14,09,28.20
2018,07,25,14,10,28.30
2018,07,25,14,11,28.30
2018,07,25,14,12,28.40
2018,07,25,14,13,28.50
2018,07,25,14,14,28.50
2018,07,25,14,15,28.50
2018,07,25,14,16,28.50
2018,07,25,14,17,28.60
2018,07,25,14,18,28.60
2018,07,25,14,19,28.70
2018,07,25,14,20,28.80
2018,07,25,14,21,28.80
2018,07,25,14,22,28.80
2018,07,25,14,23,28.80
2018,07,25,14,24,28.80
2018,07,25,14,25,28.90
2018,07,25,14,26,28.90
2018,07,25,14,27,28.90
2018,07,25,14,28,28.90
2018,07,25,14,29,28.90
2018,07,25,14,30,28.90
2018,07,25,14,31,28.90
2018,07,25,14,32,28.90
2018,07,25,14,33,28.90
2018,07,25,14,34,28.90
2018,07,25,14,35,28.90
2018,07,25,14,36,28.90
2018,07,25,14,37,28.90
2018,07,25,14,38,28.90
2018,07,25,14,39,28.90
2018,07,25,14,40,28.90
2018,07,25,14,41,28.90
2018,07,25,14,42,28.90
2018,07,25,14,43,29.00
2018,07,25,14,44,29.00
2018,07,25,14,45,29.00
2018,07,25,14,46,29.00
2018,07,25,14,47,29.00
2018,07,25,14,48,29.00
2018,07,25,14,49,28.90
2018,07,25,14,50,28.90
2018,07,25,14,51,29.00
2018,07,25,14,52,29.10
2018,07,25,14,53,29.10
2018,07,25,14,54,29.10
2018,07,25,14,55,29.10
2018,07,25,14,56,29.20
2018,07,25,14,57,29.10
2018,07,25,14,58,29.10
2018,07,25,14,59,29.10
2018,07,25,15,00,29.10
2018,07,25,15,01,29.10
2018,07,25,15,02,29.10
2018,07,25,15,03,29.10
2018,07,25,15,04,29.20
2018,07,25,15,05,29.30
2018,07,25,15,06,29.30
2018,07,25,15,07,29.30
2018,07,25,15,08,29.40
2018,07,25,15,09,29.40
2018,07,25,15,10,29.50
2018,07,25,15,11,29.50
2018,07,25,15,12,29.60
2018,07,25,15,13,29.70
2018,07,25,15,14,29.80
2018,07,25,15,15,29.80
2018,07,25,15,16,29.80
2018,07,25,15,17,29.80
2018,07,25,15,18,29.80
2018,07,25,15,19,29.80
2018,07,25,15,20,29.70
2018,07,25,15,21,29.70
2018,07,25,15,22,29.80
2018,07,25,15,23,29.80
2018,07,25,15,24,29.80
2018,07,25,15,25,29.80
2018,07,25,15,26,29.90
2018,07,25,15,27,29.90
2018,07,25,15,28,30.00
2018,07,25,15,29,29.90
2018,07,25,15,30,29.80
2018,07,25,15,31,29.80
2018,07,25,15,32,29.80
2018,07,25,15,33,29.90
2018,07,25,15,34,29.90
2018,07,25,15,35,30.00
2018,07,25,15,36,30.00
2018,07,25,15,37,30.00
2018,07,25,15,38,30.10
2018,07,25,15,39,30.10
2018,07,25,15,40,30.10
2018,07,25,15,41,30.10
2018,07,25,15,42,30.10
2018,07,25,15,43,30.20
2018,07,25,15,44,30.10
2018,07,25,15,45,30.10
2018,07,25,15,46,30.10
2018,07,25,15,47,30.10
2018,07,25,15,48,30.00
2018,07,25,15,49,30.00
2018,07,25,15,50,30.00
2018,07,25,15,51,30.00
2018,07,25,15,52,30.00
2018,07,25,15,53,30.10
2018,07,25,15,54,30.10
2018,07,25,15,55,30.20
2018,07,25,15,56,30.20
2018,07,25,15,57,30.10
2018,07,25,15,58,30.10
2018,07,25,15,59,30.10
2018,07,25,16,00,30.10
2018,07,25,16,01,30.10
2018,07,25,16,02,30.10
2018,07,25,16,03,30.10
2018,07,25,16,04,30.20
2018,07,25,16,05,30.30
2018,07,25,16,06,30.30
2018,07,25,16,07,30.40
2018,07,25,16,08,30.50
2018,07,25,16,09,30.60
2018,07,25,16,10,30.60
2018,07,25,16,11,30.60
2018,07,25,16,12,30.50
2018,07,25,16,13,30.50
2018,07,25,16,14,30.50
2018,07,25,16,15,30.40
2018,07,25,16,16,30.50
2018,07,25,16,17,30.50
2018,07,25,16,18,30.60
2018,07,25,16,19,30.60
2018,07,25,16,20,30.60
2018,07,25,16,21,30.60
2018,07,25,16,22,30.70
2018,07,25,16,23,30.70
2018,07,25,16,24,30.80
2018,07,25,16,25,30.80
2018,07,25,16,26,30.70
2018,07,25,16,27,30.80
2018,07,25,16,28,30.80
2018,07,25,16,29,30.80
2018,07,25,16,30,30.80
2018,07,25,16,31,30.80
2018,07,25,16,32,30.80
2018,07,25,16,33,30.80
2018,07,25,16,34,30.80
2018,07,25,16,35,30.70
2018,07,25,16,36,30.70
2018,07,25,16,37,30.70
2018,07,25,16,38,30.70
2018,07,25,16,39,30.80
2018,07,25,16,40,30.80
2018,07,25,16,41,30.80
2018,07,25,16,42,30.80
2018,07,25,16,43,30.80
2018,07,25,16,44,30.70
2018,07,25,16,45,30.60
2018,07,25,16,46,30.60
2018,07,25,16,47,30.60
2018,07,25,16,48,30.60
2018,07,25,16,49,30.70
2018,07,25,16,50,30.70
2018,07,25,16,51,30.70
2018,07,25,16,52,30.70
2018,07,25,16,53,30.70
2018,07,25,16,54,30.70
2018,07,25,16,55,30.70
2018,07,25,16,56,30.60
2018,07,25,16,57,30.50
2018,07,25,16,58,30.40
2018,07,25,16,59,30.40
2018,07,25,17,00,30.40
2018,07,25,17,01,30.40
2018,07,25,17,02,30.40
2018,07,25,17,03,30.40
2018,07,25,17,04,30.30
2018,07,25,17,05,30.30
2018,07,25,17,06,30.30
2018,07,25,17,07,30.20
2018,07,25,17,08,30.20
2018,07,25,17,09,30.10
2018,07,25,17,10,30.10
2018,07,25,17,11,30.10
2018,07,25,17,12,30.10
2018,07,25,17,13,30.10
2018,07,25,17,14,30.10
2018,07,25,17,15,30.10
2018,07,25,17,16,30.10
2018,07,25,17,17,30.10
2018,07,25,17,18,30.20
2018,07,25,17,19,30.10